When you browse on this site, cookies collect data to enhance your experience and personalize the content and advertising you see.
Visit our Privacy Policy to learn more. By continuing to use the site, you agree to this use of cookies and data.

Stündliche Wetter Lyubozherde

Heute, 12 August, Mittwoch

Zeit Temperatur Niederschläge Wind Luftdruck Luftfeuchtigkeit
00:00 +13°C° 0 mm 3 m/S 751 mmHg 87%
01:00 +13°C° 0 mm 3 m/S 751 mmHg 88%
02:00 +13°C° 0 mm 2 m/S 751 mmHg 89%
03:00 +12°C° 0 mm 2 m/S 752 mmHg 90%
04:00 +12°C° 0 mm 2 m/S 752 mmHg 90%
05:00 +12°C° 0 mm 2 m/S 752 mmHg 91%
06:00 +13°C° 0 mm 2 m/S 752 mmHg 85%
07:00 +15°C° 0 mm 2 m/S 752 mmHg 80%
08:00 +16°C° 0 mm 2 m/S 752 mmHg 75%
09:00 +17°C° 0 mm 3 m/S 752 mmHg 69%
10:00 +19°C° 0 mm 3 m/S 752 mmHg 64%
11:00 +20°C° 0 mm 3 m/S 753 mmHg 58%
12:00 +20°C° 0 mm 3 m/S 753 mmHg 57%
13:00 +20°C° 0 mm 3 m/S 753 mmHg 56%
14:00 +21°C° 0 mm 3 m/S 753 mmHg 55%
15:00 +20°C° 0 mm 3 m/S 752 mmHg 57%
16:00 +20°C° 0 mm 3 m/S 752 mmHg 59%
17:00 +20°C° 0 mm 3 m/S 752 mmHg 61%
18:00 +19°C° 0 mm 3 m/S 752 mmHg 67%
19:00 +17°C° 0 mm 2 m/S 752 mmHg 73%
20:00 +15°C° 0 mm 2 m/S 752 mmHg 79%
21:00 +15°C° 0 mm 2 m/S 753 mmHg 82%
22:00 +14°C° 0 mm 2 m/S 753 mmHg 84%
23:00 +13°C° 0 mm 1 m/S 753 mmHg 87%

Morgen, 13 August, Donnerstag

Zeit Temperatur Niederschläge Wind Luftdruck Luftfeuchtigkeit
00:00 +13°C° 0 mm 1 m/S 753 mmHg 88%
01:00 +12°C° 0 mm 1 m/S 753 mmHg 89%
02:00 +12°C° 0 mm 1 m/S 753 mmHg 91%
03:00 +12°C° 0 mm 1 m/S 753 mmHg 92%
04:00 +11°C° 0 mm 1 m/S 752 mmHg 92%
05:00 +11°C° 0 mm 1 m/S 752 mmHg 93%
06:00 +13°C° 0 mm 1 m/S 752 mmHg 87%
07:00 +14°C° 0 mm 1 m/S 752 mmHg 82%
08:00 +16°C° 0 mm 1 m/S 752 mmHg 76%
09:00 +17°C° 0 mm 2 m/S 752 mmHg 71%
10:00 +19°C° 0 mm 2 m/S 752 mmHg 65%
11:00 +20°C° 0 mm 2 m/S 752 mmHg 59%
12:00 +20°C° 0 mm 2 m/S 752 mmHg 59%
13:00 +20°C° 0 mm 2 m/S 751 mmHg 58%
14:00 +21°C° 0 mm 1 m/S 751 mmHg 57%
15:00 +21°C° 0 mm 1 m/S 751 mmHg 59%
16:00 +21°C° 0 mm 1 m/S 751 mmHg 61%
17:00 +21°C° 0 mm 1 m/S 751 mmHg 62%
18:00 +20°C° 0 mm 1 m/S 751 mmHg 67%
19:00 +18°C° 0 mm 1 m/S 751 mmHg 71%
20:00 +16°C° 0 mm 1 m/S 751 mmHg 75%
21:00 +15°C° 0 mm 1 m/S 751 mmHg 78%
22:00 +14°C° 0 mm 1 m/S 751 mmHg 81%
23:00 +13°C° 0 mm 1 m/S 751 mmHg 84%

übermorgen, 14 August, Freitag

Zeit Temperatur Niederschläge Wind Luftdruck Luftfeuchtigkeit
00:00 +11°C° 0 mm 0 m/S 751 mmHg 85%
01:00 +11°C° 0 mm 0 m/S 751 mmHg 85%
02:00 +11°C° 0 mm 0 m/S 751 mmHg 86%
03:00 +11°C° 0 mm 0 m/S 751 mmHg 86%
04:00 +10°C° 0 mm 0 m/S 751 mmHg 87%
05:00 +10°C° 0 mm 0 m/S 751 mmHg 88%
06:00 +13°C° 0 mm 1 m/S 751 mmHg 82%
07:00 +15°C° 0 mm 1 m/S 751 mmHg 76%
08:00 +18°C° 0 mm 1 m/S 751 mmHg 70%
09:00 +19°C° 0 mm 1 m/S 751 mmHg 65%
10:00 +21°C° 0 mm 1 m/S 752 mmHg 60%
11:00 +23°C° 0 mm 1 m/S 752 mmHg 56%
12:00 +23°C° 0 mm 1 m/S 751 mmHg 55%
13:00 +23°C° 0 mm 1 m/S 751 mmHg 54%
14:00 +22°C° 0 mm 0 m/S 751 mmHg 53%
15:00 +21°C° 0.1 mm 0 m/S 751 mmHg 55%
16:00 +21°C° 0.1 mm 0 m/S 751 mmHg 58%
17:00 +23°C° 0.1 mm 1 m/S 751 mmHg 61%
18:00 +21°C° 0 mm 1 m/S 751 mmHg 67%
19:00 +19°C° 0 mm 1 m/S 751 mmHg 73%
20:00 +16°C° 0 mm 1 m/S 751 mmHg 79%
21:00 +16°C° 0 mm 1 m/S 751 mmHg 81%
22:00 +15°C° 0 mm 1 m/S 751 mmHg 83%
23:00 +15°C° 0 mm 1 m/S 752 mmHg 86%

15 August, Samstag

Zeit Temperatur Niederschläge Wind Luftdruck Luftfeuchtigkeit
00:00 +14°C° 0 mm 1 m/S 752 mmHg 87%
01:00 +14°C° 0 mm 1 m/S 752 mmHg 88%
02:00 +13°C° 0 mm 1 m/S 752 mmHg 90%
03:00 +13°C° 0 mm 1 m/S 752 mmHg 90%
04:00 +13°C° 0 mm 1 m/S 752 mmHg 91%
05:00 +13°C° 0 mm 1 m/S 752 mmHg 91%
06:00 +14°C° 0 mm 1 m/S 752 mmHg 86%
07:00 +16°C° 0 mm 1 m/S 752 mmHg 81%
08:00 +18°C° 0 mm 1 m/S 752 mmHg 76%
09:00 +20°C° 0 mm 1 m/S 752 mmHg 71%
10:00 +21°C° 0 mm 1 m/S 753 mmHg 65%
11:00 +23°C° 0 mm 1 m/S 753 mmHg 60%
12:00 +23°C° 0.1 mm 1 m/S 753 mmHg 58%
13:00 +24°C° 0.1 mm 1 m/S 752 mmHg 57%
14:00 +25°C° 0.1 mm 1 m/S 752 mmHg 55%
15:00 +24°C° 0.2 mm 1 m/S 752 mmHg 58%
16:00 +24°C° 0.2 mm 1 m/S 752 mmHg 61%
17:00 +23°C° 0.2 mm 1 m/S 752 mmHg 64%
18:00 +22°C° 0.1 mm 1 m/S 752 mmHg 70%
19:00 +20°C° 0.1 mm 1 m/S 752 mmHg 76%
20:00 +18°C° 0.1 mm 1 m/S 752 mmHg 82%
21:00 +18°C° 0 mm 1 m/S 752 mmHg 83%
22:00 +16°C° 0 mm 1 m/S 752 mmHg 84%
23:00 +14°C° 0 mm 0 m/S 752 mmHg 85%

16 August, Sonntag

Zeit Temperatur Niederschläge Wind Luftdruck Luftfeuchtigkeit
00:00 +14°C° 0 mm 0 m/S 752 mmHg 86%
01:00 +14°C° 0 mm 0 m/S 752 mmHg 87%
02:00 +13°C° 0 mm 0 m/S 752 mmHg 87%
03:00 +13°C° 0 mm 0 m/S 752 mmHg 88%
04:00 +13°C° 0 mm 0 m/S 752 mmHg 88%
05:00 +13°C° 0 mm 0 m/S 752 mmHg 89%
06:00 +14°C° 0 mm 0 m/S 752 mmHg 84%
07:00 +16°C° 0 mm 0 m/S 752 mmHg 80%
08:00 +20°C° 0 mm 1 m/S 752 mmHg 75%
09:00 +21°C° 0 mm 1 m/S 752 mmHg 70%
10:00 +23°C° 0 mm 1 m/S 753 mmHg 65%
11:00 +25°C° 0 mm 1 m/S 753 mmHg 60%
12:00 +25°C° 0.3 mm 1 m/S 753 mmHg 59%
13:00 +25°C° 0.3 mm 1 m/S 752 mmHg 58%
14:00 +26°C° 0.3 mm 1 m/S 752 mmHg 58%
15:00 +25°C° 0.4 mm 1 m/S 752 mmHg 61%
16:00 +25°C° 0.4 mm 1 m/S 752 mmHg 63%
17:00 +24°C° 0.4 mm 1 m/S 752 mmHg 66%
18:00 +21°C° 0 mm 0 m/S 752 mmHg 71%
19:00 +19°C° 0 mm 0 m/S 752 mmHg 77%
20:00 +17°C° 0 mm 0 m/S 752 mmHg 82%
21:00 +17°C° 0 mm 0 m/S 752 mmHg 83%
22:00 +18°C° 0 mm 1 m/S 752 mmHg 85%
23:00 +18°C° 0 mm 1 m/S 752 mmHg 86%

17 August, Montag

Zeit Temperatur Niederschläge Wind Luftdruck Luftfeuchtigkeit
00:00 +16°C° 0 mm 1 m/S 752 mmHg 87%
01:00 +16°C° 0 mm 1 m/S 752 mmHg 88%
02:00 +15°C° 0 mm 0 m/S 752 mmHg 89%
03:00 +14°C° 0 mm 0 m/S 752 mmHg 90%
04:00 +14°C° 0 mm 0 m/S 752 mmHg 90%
05:00 +14°C° 0 mm 0 m/S 752 mmHg 91%
06:00 +15°C° 0 mm 0 m/S 752 mmHg 87%
07:00 +19°C° 0 mm 1 m/S 752 mmHg 82%
08:00 +21°C° 0 mm 1 m/S 752 mmHg 78%
09:00 +22°C° 0 mm 1 m/S 752 mmHg 73%
10:00 +24°C° 0 mm 1 m/S 752 mmHg 67%
11:00 +25°C° 0 mm 1 m/S 752 mmHg 61%
12:00 +26°C° 0 mm 1 m/S 752 mmHg 59%
13:00 +26°C° 0 mm 1 m/S 752 mmHg 56%
14:00 +27°C° 0 mm 1 m/S 752 mmHg 53%
15:00 +27°C° 0 mm 1 m/S 751 mmHg 54%
16:00 +27°C° 0 mm 1 m/S 751 mmHg 55%
17:00 +26°C° 0 mm 1 m/S 751 mmHg 56%
18:00 +24°C° 0 mm 1 m/S 751 mmHg 62%
19:00 +22°C° 0 mm 1 m/S 751 mmHg 68%
20:00 +21°C° 0 mm 1 m/S 751 mmHg 74%
21:00 +20°C° 0 mm 1 m/S 751 mmHg 76%
22:00 +19°C° 0 mm 1 m/S 751 mmHg 79%
23:00 +19°C° 0 mm 1 m/S 751 mmHg 82%
Mehr zeigen